Location: Unspecified
(61.9791°N, 0.0000°E)
Time: 01:12:40
(UTC+00:00)

WESTPAC - Visible Passes

Search period start: 04 April 2026 00:00
Search period end: 14 April 2026 00:00
Orbit: 813 x 817 km, 99.0° (Epoch: 29 March)

Date Brightness Start Highest point End Pass type
(mag) Time Alt. Az. Time Alt. Az. Time Alt. Az.
4 Apr 9.8 04:18:35 10° NNE 04:23:32 37° E 04:28:28 10° SSE visible
5 Apr 10.3 03:56:29 10° NNE 04:01:03 28° E 04:05:36 10° SSE visible
6 Apr 10.7 03:34:31 10° NE 03:38:30 21° E 03:42:29 10° SE visible
7 Apr 10.9 03:12:45 10° NE 03:15:53 15° E 03:19:00 10° ESE visible
8 Apr 11.2 02:51:39 10° ENE 02:53:11 11° ENE 02:54:43 10° E visible
9 Apr 10.1 04:07:24 10° NNE 04:12:10 32° E 04:16:54 10° SSE visible
10 Apr 10.6 03:45:22 10° NE 03:49:39 24° E 03:53:55 10° SE visible
11 Apr 10.8 03:23:29 10° NE 03:27:04 18° E 03:30:37 10° SE visible
12 Apr 11.0 03:01:57 10° NE 03:04:24 13° ENE 03:06:50 10° ESE visible
